Zurück zum Katalog

FENGYUN 1C DEB

AktivPO
NORAD 31202·DEBRIS·🇨🇳 China

Gestartet May 10, 1999 von Taiyuan Satellite Launch Center

Loading…

Nächste Überflüge (nächste 24 Stunden)

TLE

AktuellSource: Space-Track

Epoche: Sep 14, 2026, 06:39 UTC

1 31202U 99025BKG 26257.27747895  .00006776  00000-0  70545-3 0  9994
2 31202  96.5539 259.5864 0062088 327.9618  43.9928 14.88638101 31702

Verfolge FENGYUN 1C DEB in Echtzeit mit AllMySat

Download on the App Store